Lapse_Rate
9.0 9.3 9.4 9.5 9.4 9.5 9.4 9.5 9.4 9.4 8.8 9.5 9.6 9.6 9.8 10.2 10.1 10.1 9.5 8.5 5.0 4.6 8.1 9.6 9.3 8.9 8.3 9.7 9.4 9.6 8.6 9.5
9.1 9.2 9.3 9.3 9.3 9.4 9.3 9.3 9.4 9.7 9.4 9.2 9.3 9.1 9.4 10.0 10.3 9.8 9.7 9.8 6.9 5.1 7.4 9.2 8.0 8.5 8.0 7.9 8.9 8.3 8.8 9.3
8.8 9.0 9.2 9.2 9.2 9.3 8.6 8.6 9.4 9.8 9.7 9.8 9.3 9.4 9.7 9.9 9.7 9.5 10.0 9.8 8.8 6.3 6.7 7.5 8.4 8.1 8.3 7.1 7.2 6.6 7.7 8.6
8.7 8.9 9.1 9.3 9.2 8.9 7.0 5.2 6.2 9.3 9.6 10.0 9.8 9.2 9.3 9.4 9.4 9.6 9.8 9.7 9.5 7.9 7.9 8.2 7.9 8.3 7.7 7.1 6.0 5.7 5.2 5.5
8.8 8.9 8.9 9.1 9.2 9.4 7.3 5.5 4.5 6.5 6.6 9.3 9.4 9.4 9.2 9.3 9.6 9.8 9.8 9.7 9.4 8.7 8.0 8.1 7.8 7.3 8.0 7.3 6.8 5.7 5.6 5.3
8.8 8.9 9.1 9.3 9.2 9.2 7.5 5.2 4.0 3.3 2.9 5.5 7.1 8.8 9.7 9.3 9.5 9.1 9.2 9.4 8.5 8.2 7.8 7.5 6.9 6.8 7.6 6.6 5.5 4.7 3.2 1.4
8.8 9.1 9.2 9.2 8.8 6.4 5.8 4.6 4.5 3.2 2.2 3.4 4.6 4.8 8.6 9.4 9.3 8.9 8.9 8.8 8.3 8.3 7.7 6.4 7.6 7.0 6.5 6.6 6.0 5.4 4.5 4.1
8.7 8.9 8.9 9.0 8.9 6.1 4.3 3.1 3.8 4.2 3.4 3.3 2.6 2.6 2.9 7.6 9.1 8.4 8.4 7.5 6.9 7.3 7.5 6.5 6.5 6.0 5.0 7.1 6.7 5.8 5.1 4.5
8.6 8.7 8.9 8.9 8.7 6.9 4.9 3.5 3.4 3.9 4.2 4.4 4.3 2.3 2.1 5.6 7.9 8.2 8.1 5.3 4.1 3.0 3.7 3.7 4.1 5.2 4.2 5.7 4.7 6.7 6.7 5.7
8.6 8.7 8.6 8.4 8.1 8.4 5.8 4.7 3.3 3.9 4.3 4.5 5.1 3.3 3.3 4.2 4.2 4.6 4.4 4.6 5.1 6.8 5.5 5.7 4.1 3.2 5.1 5.2 4.5 4.3 5.5 6.8
8.6 8.6 8.3 8.8 8.4 8.3 8.0 4.9 3.7 4.2 3.8 4.7 4.9 5.1 5.1 5.9 6.3 5.4 4.6 4.9 4.7 5.5 5.8 6.2 4.9 5.5 5.0 5.3 5.1 4.4 5.5 5.6
8.4 8.4 8.7 8.9 8.9 8.4 7.9 5.4 3.9 4.0 3.3 5.2 5.2 3.3 4.6 6.3 7.2 7.4 7.3 7.1 6.6 6.7 6.6 6.5 5.4 6.9 6.5 5.6 4.8 5.6 5.4 5.5
8.4 8.5 8.5 7.5 7.5 7.1 6.6 5.8 4.9 4.0 4.4 4.2 6.2 4.1 4.0 5.5 7.5 8.3 8.7 9.1 8.0 8.6 8.2 6.8 6.7 6.3 6.8 6.3 6.2 6.4 5.6 5.5
8.4 8.5 6.6 6.0 6.0 6.2 6.2 5.8 5.6 4.5 6.0 4.5 6.2 4.8 3.0 5.3 7.2 8.2 8.9 9.0 9.2 9.1 8.8 6.4 6.1 6.2 7.5 7.6 6.9 6.2 4.0 5.0
8.4 8.4 8.3 6.9 6.8 7.0 7.5 7.4 5.5 5.6 5.6 6.0 6.6 6.1 3.6 3.7 5.8 5.5 7.5 8.8 8.8 8.1 8.2 8.1 7.7 7.7 8.4 5.5 3.8 3.5 4.3 4.7
8.4 8.4 8.6 8.8 8.8 8.9 9.0 8.9 8.2 6.6 6.1 8.0 8.1 8.6 7.5 5.7 4.5 4.3 3.9 5.4 8.4 7.6 8.6 7.9 7.4 6.8 4.6 1.8 1.1 1.5 2.1 3.3
8.5 8.7 8.8 8.9 8.9 9.0 9.0 8.9 9.1 8.4 7.3 8.1 9.1 9.0 9.2 9.1 8.6 9.0 7.8 8.0 8.2 7.5 9.1 7.8 7.0 9.2 0.4 0.5 -0.7 0.8 1.3 1.7
8.6 8.7 8.9 9.0 9.0 9.3 9.0 9.0 9.3 9.1 8.9 8.8 9.0 9.2 9.1 9.2 9.3 9.2 9.1 8.8 7.5 4.7 6.0 5.7 6.5 8.4 1.4 0.3 -1.3 -0.1 1.4 2.4
8.7 8.9 9.0 9.1 9.3 9.3 9.3 9.3 9.2 9.1 9.0 8.7 8.9 9.1 9.1 9.3 9.3 8.9 8.8 8.3 3.9 3.2 6.3 5.5 2.9 5.6 1.1 0.4 -1.6 2.1 1.8 2.3
Wind_Speed
16 18 19 20 20 20 17 15 15 13 11 9 11 12 12 12 12 12 15 16 21 15 13 13 12 9 10 11 12 11 8 10
18 18 22 25 24 24 24 20 16 13 10 10 11 12 11 12 12 16 16 14 17 15 14 13 12 12 13 12 10 11 9 9
17 22 22 23 23 25 25 26 23 16 13 12 9 10 11 11 12 14 16 16 17 17 18 14 15 12 15 13 12 6 7 9
23 23 23 22 23 24 25 26 26 23 19 14 12 11 11 11 10 11 14 18 17 18 19 15 16 14 13 13 11 11 7 5
21 22 23 23 21 21 22 24 25 25 28 18 17 14 13 12 12 11 12 16 18 18 18 18 16 12 15 14 13 12 10 7
19 20 19 20 21 21 20 22 23 24 26 24 17 20 13 13 11 15 14 14 15 16 16 18 17 14 14 14 15 15 13 10
17 18 18 17 17 19 20 21 19 21 23 24 22 23 22 15 15 12 11 10 11 17 16 13 17 16 15 13 13 12 11 10
15 19 20 20 20 20 18 22 20 20 22 22 22 22 24 22 19 12 13 10 11 15 18 14 13 13 9 15 14 11 12 12
15 17 17 19 20 20 20 19 20 18 21 22 20 21 15 15 15 12 11 5 3 2 5 4 4 6 9 8 7 9 10 11
17 17 16 18 18 20 19 18 19 18 18 18 18 18 20 16 16 6 6 5 4 11 11 11 10 12 10 6 8 10 12 12
15 15 16 16 16 17 18 18 17 18 16 17 15 16 18 16 12 10 7 5 4 1 4 6 8 9 10 11 7 6 10 12
14 14 14 17 16 17 18 17 17 16 14 16 18 14 16 16 12 10 10 8 6 4 2 2 1 4 2 4 5 9 10 12
14 14 14 15 16 16 17 16 15 15 14 12 15 14 13 13 14 14 12 9 6 5 4 4 4 5 4 3 5 9 10 11
16 15 7 7 9 10 14 13 13 14 15 12 13 13 11 11 14 13 12 13 10 9 6 5 5 4 4 6 5 5 5 7
16 15 14 6 8 8 12 12 12 12 15 13 14 14 15 13 15 15 14 12 12 10 9 7 5 3 3 9 10 10 11 7
16 16 16 16 16 15 15 16 14 14 15 14 16 16 14 15 15 14 13 12 11 12 10 8 7 5 9 11 10 10 11 12
16 16 17 17 17 16 16 16 16 15 15 15 14 14 14 13 14 12 10 11 11 10 9 9 9 6 13 9 8 9 9 10
15 15 15 15 16 16 17 16 16 16 14 15 17 16 14 14 12 13 12 10 10 11 11 10 10 8 12 10 9 10 10 10
14 13 14 15 15 15 15 15 15 16 16 16 16 16 17 17 15 15 14 13 12 11 11 13 12 11 14 14 14 11 9 10
Wind_Direction
6 359 359 353 356 345 340 334 328 313 306 255 243 246 238 236 227 222 216 196 203 214 215 220 221 194 195 213 218 214 196 222
360 357 2 1 349 346 342 328 319 312 291 264 243 238 237 230 232 232 221 208 198 209 221 219 194 206 196 204 213 218 210 219
355 10 358 357 349 348 340 335 325 306 298 292 257 256 241 237 226 226 228 220 201 202 214 214 201 203 204 192 195 198 218 207
359 355 356 351 354 350 343 339 333 321 300 290 280 263 250 247 236 240 222 221 215 203 211 214 209 211 196 190 183 174 189 205
357 353 354 350 355 352 348 343 342 340 336 306 285 279 265 230 231 231 233 221 221 214 214 213 212 197 197 187 182 179 174 192
358 356 353 357 354 351 350 346 346 344 343 334 317 296 263 261 235 227 224 229 225 218 212 216 213 204 197 189 182 190 192 160
355 351 349 355 359 358 350 350 346 345 340 337 332 320 290 260 248 230 228 220 224 221 215 211 215 211 197 194 193 194 207 189
347 346 345 349 355 357 359 347 343 346 338 335 335 333 330 290 259 240 229 225 218 221 215 208 213 211 212 210 188 187 208 200
349 347 344 343 347 353 353 355 337 343 343 335 335 339 342 323 263 254 243 193 165 147 127 134 232 225 188 201 168 211 224 214
346 347 348 347 344 347 346 352 347 337 348 333 337 341 345 338 327 59 54 47 54 190 197 215 211 173 220 173 222 217 204 221
340 343 339 345 343 341 344 350 354 333 341 338 325 343 342 336 341 353 33 42 27 114 98 154 169 195 202 195 200 211 226 228
344 339 337 344 341 345 342 350 352 340 335 336 337 349 341 344 343 345 16 22 7 8 311 162 132 184 156 221 200 227 226 235
344 337 348 337 340 342 342 346 347 348 326 343 340 335 340 339 334 0 4 4 360 3 344 24 24 19 355 291 332 238 227 229
339 340 351 320 333 341 342 341 339 347 332 346 335 343 332 337 341 353 356 358 1 3 355 15 28 25 313 296 286 339 335 303
337 340 337 334 340 341 345 345 343 342 339 345 349 343 352 344 350 358 346 353 354 351 353 359 9 354 352 32 5 350 323 308
335 339 339 340 344 342 346 345 350 342 348 345 356 348 353 351 347 334 346 351 349 349 344 352 3 0 42 25 359 335 313 305
339 340 342 340 342 343 344 343 344 349 350 345 350 353 353 350 336 339 343 330 338 347 348 356 359 359 43 19 356 320 304 299
340 341 341 340 339 344 345 341 343 344 352 349 348 349 350 349 341 341 339 337 336 2 348 349 355 352 33 346 344 329 314 306
338 338 339 337 339 345 340 340 345 345 350 349 348 348 345 344 346 346 344 345 357 355 336 353 350 354 0 345 341 331 324 315